| time (UTC) | temp F | wind direction | speed MPH | gust MPH | rain 1hr in | rain 24hr in | rain mn in | humidity % | barometer mb |
| 20260504120138 | 46 | 111 | 1.0 | 3.0 | 0.00 | 0.00 | 0.00 | 73 | 1011.8 |
| 20260504110606 | 47 | 72 | 0.0 | 2.0 | 0.00 | 0.00 | 0.00 | 72 | 1011.8 |
| 20260504100528 | 48 | 84 | 2.0 | 3.0 | 0.00 | 0.00 | 0.00 | 70 | 1011.7 |
| 20260504081921 | 50 | 63 | 0.0 | 2.0 | 0.00 | 0.00 | 0.00 | 65 | 1011.7 |
| 20260504081418 | 50 | 145 | 0.0 | 2.0 | 0.00 | 0.00 | 0.00 | 63 | 1011.7 |
| 20260504080914 | 51 | 147 | 0.0 | 2.0 | 0.00 | 0.00 | 0.00 | 63 | 1011.7 |
| 20260504080411 | 50 | 103 | 0.0 | 2.0 | 0.00 | 0.00 | 0.00 | 63 | 1011.6 |
| 20260504070338 | 52 | 160 | 0.0 | 2.0 | 0.00 | 0.00 | 0.00 | 59 | 1011.3 |
| 20260504050726 | 57 | 166 | 0.0 | 1.0 | 0.00 | 0.00 | 0.00 | 50 | 1011.2 |
| 20260504050223 | 57 | 38 | 0.0 | 2.0 | 0.00 | 0.00 | 0.00 | 50 | 1011.6 |
| 20260504045721 | 58 | 45 | 2.0 | 2.0 | 0.00 | 0.00 | 0.00 | 49 | 1011.3 |
| 20260504045216 | 58 | 240 | 0.0 | 2.0 | 0.00 | 0.00 | 0.00 | 47 | 1011.3 |
| 20260504044714 | 58 | 269 | 0.0 | 2.0 | 0.00 | 0.00 | 0.00 | 48 | 1011.1 |
| 20260504044211 | 58 | 322 | 0.0 | 1.0 | 0.00 | 0.00 | 0.00 | 48 | 1010.9 |
| 20260504043708 | 58 | 293 | 0.0 | 2.0 | 0.00 | 0.00 | 0.00 | 48 | 1011.0 |
| 20260504043204 | 58 | 205 | 0.0 | 1.0 | 0.00 | 0.00 | 0.00 | 49 | 1010.9 |
| 20260504042702 | 58 | 230 | 0.0 | 1.0 | 0.00 | 0.00 | 0.00 | 50 | 1011.1 |
| 20260504042158 | 58 | 66 | 0.0 | 0.0 | 0.00 | 0.00 | 0.00 | 51 | 1010.9 |
| 20260504041654 | 58 | 66 | 0.0 | 1.0 | 0.00 | 0.00 | 0.00 | 50 | 1010.9 |
| 20260504041150 | 59 | 129 | 0.0 | 1.0 | 0.00 | 0.00 | 0.00 | 52 | 1010.6 |
| 20260504040648 | 59 | 89 | 0.0 | 2.0 | 0.00 | 0.00 | 0.00 | 51 | 1011.1 |
| 20260504040145 | 59 | 103 | 1.0 | 2.0 | 0.00 | 0.00 | 0.00 | 51 | 1010.7 |
| 20260504035641 | 59 | 81 | 0.0 | 1.0 | 0.00 | 0.00 | 0.00 | 50 | 1010.6 |
| 20260504035138 | 60 | 130 | 0.0 | 1.0 | 0.00 | 0.00 | 0.00 | 50 | 1010.6 |
| 20260504034636 | 61 | 230 | 0.0 | 1.0 | 0.00 | 0.00 | 0.00 | 49 | 1010.4 |
| 20260504034132 | 62 | 29 | 0.0 | 2.0 | 0.00 | 0.00 | 0.00 | 48 | 1010.2 |
| 20260504033630 | 62 | 8 | 1.0 | 2.0 | 0.00 | 0.00 | 0.00 | 47 | 1010.5 |
| 20260504033127 | 63 | 3 | 2.0 | 3.0 | 0.00 | 0.00 | 0.00 | 45 | 1010.4 |
| 20260504032624 | 63 | 352 | 1.0 | 2.0 | 0.00 | 0.00 | 0.00 | 44 | 1010.4 |
| 20260504032121 | 64 | 0 | 2.0 | 2.0 | 0.00 | 0.00 | 0.00 | 42 | 1010.1 |
| 20260504031618 | 64 | 2 | 2.0 | 3.0 | 0.00 | 0.00 | 0.00 | 42 | 1010.1 |
| 20260504031114 | 65 | 351 | 2.0 | 2.0 | 0.00 | 0.00 | 0.00 | 42 | 1010.1 |
| 20260504030611 | 65 | 345 | 0.0 | 2.0 | 0.00 | 0.00 | 0.00 | 43 | 1010.0 |
| 20260504030108 | 66 | 332 | 2.0 | 3.0 | 0.00 | 0.00 | 0.00 | 41 | 1010.0 |
| 20260504025605 | 66 | 269 | 0.0 | 2.0 | 0.00 | 0.00 | 0.00 | 41 | 1009.6 |
| 20260504025102 | 66 | 269 | 0.0 | 3.0 | 0.00 | 0.00 | 0.00 | 41 | 1009.6 |
| 20260504024559 | 67 | 336 | 1.0 | 2.0 | 0.00 | 0.00 | 0.00 | 40 | 1009.5 |
| 20260504024055 | 67 | 352 | 2.0 | 2.0 | 0.00 | 0.00 | 0.00 | 39 | 1009.7 |
| 20260504023552 | 67 | 277 | 1.0 | 4.0 | 0.00 | 0.00 | 0.00 | 41 | 1009.4 |
| 20260504023048 | 68 | 255 | 2.0 | 3.0 | 0.00 | 0.00 | 0.00 | 39 | 1009.5 |
| 20260504022544 | 69 | 264 | 2.0 | 4.0 | 0.00 | 0.00 | 0.00 | 36 | 1009.7 |
| 20260504022041 | 69 | 256 | 2.0 | 2.0 | 0.00 | 0.00 | 0.00 | 35 | 1009.5 |
| 20260504021538 | 70 | 242 | 2.0 | 4.0 | 0.00 | 0.00 | 0.00 | 34 | 1009.5 |
| 20260504021035 | 71 | 272 | 2.0 | 2.0 | 0.00 | 0.00 | 0.00 | 33 | 1009.5 |
| 20260504020532 | 72 | 274 | 1.0 | 3.0 | 0.00 | 0.00 | 0.00 | 35 | 1009.5 |
| 20260504020028 | 73 | 232 | 2.0 | 4.0 | 0.00 | 0.00 | 0.00 | 31 | 1009.5 |
| 20260504015525 | 73 | 297 | 0.0 | 3.0 | 0.00 | 0.00 | 0.00 | 31 | 1009.7 |
| 20260504015021 | 74 | 254 | 2.0 | 4.0 | 0.00 | 0.00 | 0.00 | 29 | 1009.7 |
| 20260504014517 | 75 | 252 | 2.0 | 4.0 | 0.00 | 0.00 | 0.00 | 29 | 1009.6 |
| 20260504014014 | 77 | 276 | 2.0 | 3.0 | 0.00 | 0.00 | 0.00 | 31 | 1009.7 |
| 20260504013512 | 78 | 234 | 3.0 | 5.0 | 0.00 | 0.00 | 0.00 | 24 | 1009.5 |
| 20260504013009 | 79 | 284 | 2.0 | 5.0 | 0.00 | 0.00 | 0.00 | 21 | 1009.5 |
| 20260504012506 | 78 | 320 | 3.0 | 5.0 | 0.00 | 0.00 | 0.00 | 24 | 1009.9 |
| 20260504012004 | 80 | 241 | 3.0 | 9.0 | 0.00 | 0.00 | 0.00 | 23 | 1009.7 |
| 20260504011500 | 79 | 285 | 2.0 | 5.0 | 0.00 | 0.00 | 0.00 | 22 | 1010.0 |
| 20260504010956 | 80 | 239 | 1.0 | 4.0 | 0.00 | 0.00 | 0.00 | 22 | 1009.9 |
| 20260504010452 | 80 | 244 | 2.0 | 4.0 | 0.00 | 0.00 | 0.00 | 23 | 1009.6 |
| 20260504005948 | 80 | 291 | 1.0 | 5.0 | 0.00 | 0.00 | 0.00 | 21 | 1009.9 |
| 20260504005445 | 82 | 140 | 2.0 | 6.0 | 0.00 | 0.00 | 0.00 | 24 | 1010.1 |
| 20260504004943 | 82 | 176 | 0.0 | 5.0 | 0.00 | 0.00 | 0.00 | 21 | 1009.9 |
| 20260504004440 | 84 | 357 | 0.0 | 5.0 | 0.00 | 0.00 | 0.00 | 22 | 1009.9 |
| 20260504003937 | 84 | 348 | 2.0 | 6.0 | 0.00 | 0.00 | 0.00 | 21 | 1010.1 |
| 20260504003433 | 84 | 234 | 2.0 | 3.0 | 0.00 | 0.00 | 0.00 | 20 | 1010.2 |
| 20260504002930 | 84 | 179 | 3.0 | 4.0 | 0.00 | 0.00 | 0.00 | 19 | 1010.2 |
| 20260504002427 | 85 | 220 | 4.0 | 6.0 | 0.00 | 0.00 | 0.00 | 19 | 1010.4 |
| 20260504001925 | 85 | 351 | 2.0 | 5.0 | 0.00 | 0.00 | 0.00 | 20 | 1010.3 |
| 20260504001422 | 85 | 239 | 1.0 | 6.0 | 0.00 | 0.00 | 0.00 | 22 | 1010.1 |
| 20260504000918 | 86 | 28 | 2.0 | 5.0 | 0.00 | 0.00 | 0.00 | 21 | 1010.3 |
| 20260504000416 | 86 | 269 | 0.0 | 3.0 | 0.00 | 0.00 | 0.00 | 18 | 1010.4 |
| 20260503235913 | 85 | 319 | 1.0 | 7.0 | 0.00 | 0.00 | 0.00 | 18 | 1010.3 |
| 20260503235411 | 86 | 106 | 3.0 | 4.0 | 0.00 | 0.00 | 0.00 | 18 | 1010.4 |
| 20260503234908 | 86 | 192 | 2.0 | 4.0 | 0.00 | 0.00 | 0.00 | 19 | 1010.2 |
| 20260503234405 | 86 | 240 | 4.0 | 5.0 | 0.00 | 0.00 | 0.00 | 18 | 1010.2 |
| 20260503233903 | 86 | 51 | 2.0 | 4.0 | 0.00 | 0.00 | 0.00 | 19 | 1010.4 |
| 20260503233359 | 86 | 329 | 2.0 | 4.0 | 0.00 | 0.00 | 0.00 | 20 | 1010.3 |
| 20260503232856 | 86 | 305 | 0.0 | 3.0 | 0.00 | 0.00 | 0.00 | 20 | 1010.6 |
| 20260503232353 | 86 | 232 | 3.0 | 5.0 | 0.00 | 0.00 | 0.00 | 19 | 1010.5 |
| 20260503231851 | 85 | 66 | 1.0 | 3.0 | 0.00 | 0.00 | 0.00 | 20 | 1010.7 |
| 20260503231347 | 86 | 155 | 3.0 | 4.0 | 0.00 | 0.00 | 0.00 | 18 | 1010.8 |
| 20260503230844 | 86 | 212 | 1.0 | 5.0 | 0.00 | 0.00 | 0.00 | 21 | 1010.7 |
| 20260503230340 | 86 | 43 | 2.0 | 5.0 | 0.00 | 0.00 | 0.00 | 21 | 1011.2 |
| 20260503225839 | 85 | 265 | 2.0 | 6.0 | 0.00 | 0.00 | 0.00 | 18 | 1010.9 |
| 20260503225334 | 86 | 253 | 4.0 | 4.0 | 0.00 | 0.00 | 0.00 | 18 | 1011.0 |
| 20260503224831 | 86 | 253 | 3.0 | 7.0 | 0.00 | 0.00 | 0.00 | 19 | 1010.9 |
| 20260503224328 | 86 | 325 | 1.0 | 2.0 | 0.00 | 0.00 | 0.00 | 17 | 1011.1 |
| 20260503223826 | 86 | 337 | 3.0 | 3.0 | 0.00 | 0.00 | 0.00 | 17 | 1011.3 |
| 20260503223323 | 86 | 36 | 2.0 | 5.0 | 0.00 | 0.00 | 0.00 | 21 | 1011.2 |
| 20260503222819 | 86 | 54 | 1.0 | 6.0 | 0.00 | 0.00 | 0.00 | 19 | 1011.3 |
| 20260503222317 | 85 | 116 | 0.0 | 7.0 | 0.00 | 0.00 | 0.00 | 17 | 1011.4 |
| 20260503221815 | 87 | 291 | 2.0 | 8.0 | 0.00 | 0.00 | 0.00 | 19 | 1011.7 |
| 20260503221314 | 86 | 330 | 2.0 | 3.0 | 0.00 | 0.00 | 0.00 | 17 | 1011.7 |
| 20260503220809 | 86 | 224 | 3.0 | 6.0 | 0.00 | 0.00 | 0.00 | 19 | 1011.8 |
| 20260503220306 | 86 | 227 | 4.0 | 6.0 | 0.00 | 0.00 | 0.00 | 19 | 1011.6 |
| 20260503215803 | 86 | 347 | 2.0 | 6.0 | 0.00 | 0.00 | 0.00 | 19 | 1011.9 |
| 20260503215300 | 86 | 297 | 3.0 | 4.0 | 0.00 | 0.00 | 0.00 | 19 | 1011.7 |
| 20260503214758 | 86 | 199 | 3.0 | 5.0 | 0.00 | 0.00 | 0.00 | 17 | 1011.9 |
| 20260503214255 | 85 | 114 | 1.0 | 5.0 | 0.00 | 0.00 | 0.00 | 16 | 1012.0 |
| 20260503213752 | 86 | 314 | 3.0 | 4.0 | 0.00 | 0.00 | 0.00 | 16 | 1012.0 |
| 20260503213250 | 84 | 235 | 2.0 | 4.0 | 0.00 | 0.00 | 0.00 | 16 | 1012.1 |
| 20260503212746 | 85 | 277 | 3.0 | 9.0 | 0.00 | 0.00 | 0.00 | 17 | 1012.3 |
| 20260503212244 | 85 | 358 | 3.0 | 5.0 | 0.00 | 0.00 | 0.00 | 17 | 1012.2 |
| 20260503211741 | 84 | 10 | 3.0 | 6.0 | 0.00 | 0.00 | 0.00 | 19 | 1012.2 |
| 20260503211238 | 84 | 321 | 2.0 | 9.0 | 0.00 | 0.00 | 0.00 | 17 | 1011.9 |
| 20260503210733 | 85 | 292 | 2.0 | 4.0 | 0.00 | 0.00 | 0.00 | 18 | 1012.2 |
| 20260503210231 | 84 | 342 | 2.0 | 4.0 | 0.00 | 0.00 | 0.00 | 18 | 1012.4 |
| 20260503205726 | 84 | 195 | 1.0 | 5.0 | 0.00 | 0.00 | 0.00 | 16 | 1012.5 |
| 20260503205222 | 84 | 67 | 2.0 | 6.0 | 0.00 | 0.00 | 0.00 | 18 | 1012.6 |
| 20260503204719 | 84 | 254 | 9.0 | 9.0 | 0.00 | 0.00 | 0.00 | 18 | 1012.6 |
| 20260503204217 | 83 | 331 | 1.0 | 3.0 | 0.00 | 0.00 | 0.00 | 18 | 1012.7 |
| 20260503203714 | 84 | 285 | 2.0 | 6.0 | 0.00 | 0.00 | 0.00 | 18 | 1012.6 |
| 20260503203211 | 83 | 25 | 0.0 | 3.0 | 0.00 | 0.00 | 0.00 | 18 | 1012.6 |
| 20260503202708 | 84 | 222 | 3.0 | 4.0 | 0.00 | 0.00 | 0.00 | 18 | 1012.7 |
| 20260503202206 | 84 | 176 | 2.0 | 5.0 | 0.00 | 0.00 | 0.00 | 18 | 1012.9 |
| 20260503201704 | 83 | 336 | 2.0 | 4.0 | 0.00 | 0.00 | 0.00 | 17 | 1013.0 |
| 20260503201201 | 82 | 229 | 4.0 | 6.0 | 0.00 | 0.00 | 0.00 | 18 | 1012.8 |
| 20260503200657 | 83 | 98 | 2.0 | 5.0 | 0.00 | 0.00 | 0.00 | 17 | 1013.3 |
| 20260503200153 | 84 | 285 | 2.0 | 4.0 | 0.00 | 0.00 | 0.00 | 19 | 1013.4 |
| 20260503195645 | 82 | 197 | 4.0 | 6.0 | 0.00 | 0.00 | 0.00 | 19 | 1013.5 |
| 20260503195142 | 81 | 158 | 2.0 | 5.0 | 0.00 | 0.00 | 0.00 | 19 | 1013.5 |
| 20260503194639 | 82 | 231 | 2.0 | 6.0 | 0.00 | 0.00 | 0.00 | 19 | 1013.5 |
| 20260503194134 | 83 | 334 | 3.0 | 5.0 | 0.00 | 0.00 | 0.00 | 19 | 1013.6 |
| 20260503193631 | 83 | 23 | 1.0 | 6.0 | 0.00 | 0.00 | 0.00 | 17 | 1013.8 |
| 20260503193126 | 83 | 166 | 2.0 | 4.0 | 0.00 | 0.00 | 0.00 | 20 | 1013.8 |
| 20260503192622 | 82 | 280 | 2.0 | 8.0 | 0.00 | 0.00 | 0.00 | 18 | 1013.8 |
| 20260503192118 | 84 | 15 | 4.0 | 5.0 | 0.00 | 0.00 | 0.00 | 19 | 1013.8 |
| 20260503191615 | 82 | 324 | 2.0 | 7.0 | 0.00 | 0.00 | 0.00 | 19 | 1013.7 |
| 20260503191112 | 82 | 279 | 2.0 | 7.0 | 0.00 | 0.00 | 0.00 | 19 | 1013.9 |
| 20260503190609 | 82 | 322 | 1.0 | 5.0 | 0.00 | 0.00 | 0.00 | 19 | 1013.7 |
| 20260503190106 | 82 | 248 | 0.0 | 6.0 | 0.00 | 0.00 | 0.00 | 20 | 1013.9 |
| 20260503185603 | 82 | 162 | 2.0 | 5.0 | 0.00 | 0.00 | 0.00 | 19 | 1014.0 |
| 20260503185103 | 81 | 54 | 3.0 | 6.0 | 0.00 | 0.00 | 0.00 | 21 | 1014.1 |
| 20260503184558 | 80 | 216 | 2.0 | 5.0 | 0.00 | 0.00 | 0.00 | 22 | 1014.3 |
| 20260503184055 | 79 | 138 | 2.0 | 4.0 | 0.00 | 0.00 | 0.00 | 22 | 1014.3 |
| 20260503183552 | 78 | 141 | 3.0 | 6.0 | 0.00 | 0.00 | 0.00 | 24 | 1014.3 |
| 20260503183049 | 78 | 135 | 3.0 | 7.0 | 0.00 | 0.00 | 0.00 | 27 | 1014.4 |
| 20260503182547 | 78 | 116 | 0.0 | 5.0 | 0.00 | 0.00 | 0.00 | 31 | 1014.7 |
| 20260503182045 | 78 | 162 | 4.0 | 5.0 | 0.00 | 0.00 | 0.00 | 33 | 1014.5 |
| 20260503181542 | 77 | 85 | 2.0 | 5.0 | 0.00 | 0.00 | 0.00 | 30 | 1014.7 |
| 20260503181038 | 77 | 158 | 2.0 | 6.0 | 0.00 | 0.00 | 0.00 | 30 | 1014.9 |
| 20260503180535 | 76 | 220 | 2.0 | 4.0 | 0.00 | 0.00 | 0.00 | 31 | 1015.0 |
| 20260503180032 | 75 | 157 | 2.0 | 5.0 | 0.00 | 0.00 | 0.00 | 31 | 1015.1 |
| 20260503175524 | 75 | 81 | 0.0 | 5.0 | 0.00 | 0.00 | 0.00 | 33 | 1015.0 |
| 20260503175021 | 74 | 210 | 0.0 | 5.0 | 0.00 | 0.00 | 0.00 | 33 | 1015.1 |
| 20260503174519 | 74 | 191 | 1.0 | 5.0 | 0.00 | 0.00 | 0.00 | 35 | 1015.2 |
| 20260503174014 | 73 | 148 | 2.0 | 4.0 | 0.00 | 0.00 | 0.00 | 35 | 1015.4 |
| 20260503173504 | 73 | 180 | 3.0 | 5.0 | 0.00 | 0.00 | 0.00 | 35 | 1015.3 |
| 20260503173000 | 72 | 127 | 1.0 | 4.0 | 0.00 | 0.00 | 0.00 | 37 | 1015.7 |
| 20260503172458 | 72 | 151 | 3.0 | 5.0 | 0.00 | 0.00 | 0.00 | 35 | 1015.7 |
| 20260503171954 | 72 | 173 | 2.0 | 4.0 | 0.00 | 0.00 | 0.00 | 37 | 1015.7 |
| 20260503171445 | 71 | 162 | 2.0 | 4.0 | 0.00 | 0.00 | 0.00 | 38 | 1015.7 |
| 20260503170943 | 70 | 154 | 0.0 | 4.0 | 0.00 | 0.00 | 0.00 | 38 | 1015.8 |
| 20260503170439 | 69 | 145 | 3.0 | 4.0 | 0.00 | 0.00 | 0.00 | 37 | 1015.7 |
| 20260503150831 | 54 | 92 | 2.0 | 4.0 | 0.00 | 0.00 | 0.00 | 65 | 1017.3 |
| 20260503150327 | 53 | 97 | 2.0 | 3.0 | 0.00 | 0.00 | 0.00 | 70 | 1017.1 |
| 20260503140252 | 41 | 125 | 2.0 | 3.0 | 0.00 | 0.00 | 0.00 | 92 | 1017.5 |
| 20260503131221 | 39 | 122 | 0.0 | 3.0 | 0.00 | 0.00 | 0.00 | 93 | 1017.6 |
| 20260503130719 | 39 | 114 | 2.0 | 3.0 | 0.00 | 0.00 | 0.00 | 92 | 1017.6 |
| 20260503130216 | 40 | 57 | 2.0 | 3.0 | 0.00 | 0.00 | 0.00 | 92 | 1017.6 |